• In Deutschland
  • Länderverzeichnis
  • Für 7 Tage
  • Wassertemperatur
  • Satellitenkarten
  • Wetterkarte
  • Widgets
  • user-avatar
    Anmelden

    Stündliche Wetter Barra

    Heute, 30 April, Sonntag

    Zeit Temperatur Niederschläge Wind Luftdruck Luftfeuchtigkeit
    00:00 +14°C° 0 mm 2 m/S 750 mmHg 81%
    01:00 +14°C° 0 mm 2 m/S 750 mmHg 79%
    02:00 +15°C° 0 mm 2 m/S 750 mmHg 78%
    03:00 +15°C° 0 mm 2 m/S 750 mmHg 77%
    04:00 +16°C° 0 mm 2 m/S 750 mmHg 72%
    05:00 +16°C° 0 mm 2 m/S 750 mmHg 75%
    06:00 +16°C° 0 mm 2 m/S 750 mmHg 78%
    07:00 +16°C° 0 mm 3 m/S 750 mmHg 81%
    08:00 +19°C° 0 mm 3 m/S 750 mmHg 76%
    09:00 +22°C° 0 mm 3 m/S 750 mmHg 70%
    10:00 +26°C° 0 mm 3 m/S 751 mmHg 62%
    11:00 +27°C° 0 mm 3 m/S 750 mmHg 60%
    12:00 +28°C° 0 mm 3 m/S 750 mmHg 57%
    13:00 +28°C° 0 mm 3 m/S 749 mmHg 55%
    14:00 +28°C° 0 mm 3 m/S 749 mmHg 57%
    15:00 +27°C° 0 mm 4 m/S 749 mmHg 58%
    16:00 +26°C° 0 mm 4 m/S 749 mmHg 61%
    17:00 +23°C° 0 mm 4 m/S 749 mmHg 70%
    18:00 +21°C° 0 mm 3 m/S 749 mmHg 80%
    19:00 +19°C° 0 mm 3 m/S 750 mmHg 89%
    20:00 +19°C° 0,2 mm 3 m/S 750 mmHg 90%
    21:00 +20°C° 0,2 mm 3 m/S 750 mmHg 92%
    22:00 +20°C° 0,2 mm 3 m/S 751 mmHg 94%
    23:00 +20°C° 0,2 mm 3 m/S 751 mmHg 93%

    Morgen, 1 Mai, Montag

    Zeit Temperatur Niederschläge Wind Luftdruck Luftfeuchtigkeit
    00:00 +20°C° 0,2 mm 3 m/S 751 mmHg 93%
    01:00 +20°C° 0,2 mm 3 m/S 750 mmHg 93%
    02:00 +21°C° 0,5 mm 3 m/S 750 mmHg 93%
    03:00 +21°C° 0,5 mm 3 m/S 750 mmHg 94%
    04:00 +21°C° 0,5 mm 3 m/S 750 mmHg 94%
    05:00 +21°C° 0,4 mm 3 m/S 750 mmHg 94%
    06:00 +21°C° 0,4 mm 3 m/S 750 mmHg 95%
    07:00 +21°C° 0,4 mm 3 m/S 751 mmHg 95%
    08:00 +22°C° 0,3 mm 3 m/S 751 mmHg 89%
    09:00 +25°C° 0,3 mm 3 m/S 751 mmHg 82%
    10:00 +26°C° 0,3 mm 3 m/S 751 mmHg 76%
    11:00 +27°C° 0,3 mm 4 m/S 750 mmHg 74%
    12:00 +27°C° 0,3 mm 4 m/S 750 mmHg 72%
    13:00 +28°C° 0,3 mm 4 m/S 750 mmHg 70%
    14:00 +27°C° 0,3 mm 4 m/S 749 mmHg 72%
    15:00 +27°C° 0,3 mm 4 m/S 749 mmHg 74%
    16:00 +26°C° 0,3 mm 3 m/S 749 mmHg 76%
    17:00 +25°C° 0,2 mm 3 m/S 749 mmHg 82%
    18:00 +22°C° 0,2 mm 3 m/S 750 mmHg 88%
    19:00 +21°C° 0,2 mm 3 m/S 750 mmHg 94%
    20:00 +21°C° 0 mm 3 m/S 750 mmHg 95%
    21:00 +20°C° 0 mm 3 m/S 751 mmHg 95%
    22:00 +20°C° 0 mm 3 m/S 751 mmHg 96%
    23:00 +20°C° 0 mm 3 m/S 751 mmHg 95%

    übermorgen, 2 Mai, Dienstag

    Zeit Temperatur Niederschläge Wind Luftdruck Luftfeuchtigkeit
    00:00 +20°C° 0 mm 3 m/S 751 mmHg 95%
    01:00 +21°C° 0 mm 3 m/S 750 mmHg 94%
    02:00 +21°C° 0,1 mm 3 m/S 750 mmHg 94%
    03:00 +21°C° 0,1 mm 2 m/S 750 mmHg 94%
    04:00 +21°C° 0,1 mm 2 m/S 750 mmHg 94%
    05:00 +21°C° 0 mm 2 m/S 750 mmHg 94%
    06:00 +21°C° 0 mm 2 m/S 750 mmHg 94%
    07:00 +21°C° 0 mm 2 m/S 750 mmHg 95%
    08:00 +24°C° 0,1 mm 3 m/S 751 mmHg 88%
    09:00 +25°C° 0,1 mm 3 m/S 751 mmHg 81%
    10:00 +27°C° 0,1 mm 3 m/S 751 mmHg 74%
    11:00 +28°C° 0 mm 3 m/S 750 mmHg 71%
    12:00 +28°C° 0 mm 4 m/S 750 mmHg 67%
    13:00 +29°C° 0 mm 4 m/S 749 mmHg 63%
    14:00 +29°C° 0,1 mm 4 m/S 749 mmHg 67%
    15:00 +28°C° 0,1 mm 4 m/S 749 mmHg 71%
    16:00 +27°C° 0,1 mm 3 m/S 748 mmHg 74%
    17:00 +26°C° 0,2 mm 3 m/S 749 mmHg 81%
    18:00 +24°C° 0,2 mm 3 m/S 749 mmHg 87%
    19:00 +22°C° 0,2 mm 3 m/S 750 mmHg 93%
    20:00 +21°C° 0,3 mm 3 m/S 750 mmHg 94%
    21:00 +21°C° 0,3 mm 3 m/S 750 mmHg 95%
    22:00 +21°C° 0,3 mm 3 m/S 751 mmHg 95%
    23:00 +20°C° 0,3 mm 2 m/S 751 mmHg 95%

    3 Mai, Mittwoch

    Zeit Temperatur Niederschläge Wind Luftdruck Luftfeuchtigkeit
    00:00 +20°C° 0,3 mm 2 m/S 750 mmHg 96%
    01:00 +20°C° 0,3 mm 2 m/S 750 mmHg 96%
    02:00 +20°C° 0,1 mm 2 m/S 750 mmHg 96%
    03:00 +20°C° 0,1 mm 2 m/S 750 mmHg 96%
    04:00 +20°C° 0,1 mm 2 m/S 750 mmHg 96%
    05:00 +20°C° 0,3 mm 2 m/S 750 mmHg 96%
    06:00 +20°C° 0,3 mm 2 m/S 750 mmHg 96%
    07:00 +20°C° 0,3 mm 3 m/S 751 mmHg 96%
    08:00 +22°C° 0,2 mm 3 m/S 751 mmHg 88%
    09:00 +25°C° 0,2 mm 3 m/S 751 mmHg 81%
    10:00 +27°C° 0,2 mm 3 m/S 751 mmHg 73%
    11:00 +28°C° 0,2 mm 3 m/S 751 mmHg 69%
    12:00 +28°C° 0,2 mm 4 m/S 750 mmHg 65%
    13:00 +29°C° 0,2 mm 4 m/S 750 mmHg 62%
    14:00 +29°C° 0,1 mm 4 m/S 749 mmHg 64%
    15:00 +28°C° 0,1 mm 4 m/S 749 mmHg 66%
    16:00 +28°C° 0,1 mm 4 m/S 749 mmHg 68%
    17:00 +26°C° 0 mm 4 m/S 749 mmHg 76%
    18:00 +24°C° 0 mm 3 m/S 750 mmHg 84%
    19:00 +21°C° 0 mm 3 m/S 750 mmHg 93%
    20:00 +21°C° 0 mm 3 m/S 751 mmHg 93%
    21:00 +21°C° 0 mm 3 m/S 751 mmHg 93%
    22:00 +21°C° 0 mm 3 m/S 752 mmHg 94%
    23:00 +21°C° 0 mm 3 m/S 752 mmHg 94%

    4 Mai, Donnerstag

    Zeit Temperatur Niederschläge Wind Luftdruck Luftfeuchtigkeit
    00:00 +21°C° 0 mm 3 m/S 751 mmHg 94%
    01:00 +21°C° 0 mm 3 m/S 751 mmHg 95%
    02:00 +21°C° 0,1 mm 4 m/S 751 mmHg 94%
    03:00 +21°C° 0,1 mm 4 m/S 751 mmHg 94%
    04:00 +21°C° 0,1 mm 4 m/S 751 mmHg 94%
    05:00 +21°C° 0,1 mm 4 m/S 751 mmHg 94%
    06:00 +21°C° 0,1 mm 4 m/S 751 mmHg 93%
    07:00 +21°C° 0,1 mm 4 m/S 752 mmHg 93%
    08:00 +23°C° 0,2 mm 4 m/S 752 mmHg 87%
    09:00 +25°C° 0,2 mm 5 m/S 752 mmHg 80%
    10:00 +27°C° 0,2 mm 5 m/S 752 mmHg 74%
    11:00 +27°C° 0,1 mm 5 m/S 752 mmHg 71%
    12:00 +28°C° 0,1 mm 5 m/S 751 mmHg 69%
    13:00 +29°C° 0,1 mm 6 m/S 751 mmHg 66%
    14:00 +28°C° 0,3 mm 5 m/S 750 mmHg 68%
    15:00 +28°C° 0,3 mm 5 m/S 750 mmHg 69%
    16:00 +28°C° 0,3 mm 5 m/S 750 mmHg 71%
    17:00 +26°C° 0,4 mm 5 m/S 750 mmHg 77%
    18:00 +25°C° 0,4 mm 5 m/S 751 mmHg 83%
    19:00 +23°C° 0,4 mm 5 m/S 751 mmHg 89%
    20:00 +22°C° 0,8 mm 6 m/S 752 mmHg 91%
    21:00 +22°C° 0,8 mm 6 m/S 752 mmHg 94%
    22:00 +22°C° 0,8 mm 6 m/S 753 mmHg 96%
    23:00 +22°C° 0,7 mm 6 m/S 752 mmHg 96%

    5 Mai, Freitag

    Zeit Temperatur Niederschläge Wind Luftdruck Luftfeuchtigkeit
    00:00 +22°C° 0,7 mm 6 m/S 752 mmHg 95%
    01:00 +22°C° 0,7 mm 6 m/S 752 mmHg 95%
    02:00 +22°C° 0,3 mm 6 m/S 752 mmHg 95%
    03:00 +22°C° 0,3 mm 6 m/S 751 mmHg 94%
    04:00 +22°C° 0,3 mm 6 m/S 751 mmHg 94%
    05:00 +22°C° 0 mm 6 m/S 752 mmHg 93%
    06:00 +22°C° 0 mm 6 m/S 752 mmHg 92%
    07:00 +23°C° 0 mm 6 m/S 753 mmHg 91%
    08:00 +23°C° 0,1 mm 6 m/S 753 mmHg 89%
    09:00 +24°C° 0,1 mm 6 m/S 753 mmHg 86%
    10:00 +24°C° 0,1 mm 6 m/S 753 mmHg 83%
    11:00 +26°C° 0,2 mm 6 m/S 753 mmHg 80%
    12:00 +27°C° 0,2 mm 7 m/S 752 mmHg 77%
    13:00 +27°C° 0,2 mm 7 m/S 752 mmHg 74%
    14:00 +27°C° 0,1 mm 7 m/S 751 mmHg 73%
    15:00 +27°C° 0,1 mm 7 m/S 751 mmHg 72%
    16:00 +27°C° 0,1 mm 6 m/S 751 mmHg 71%
    17:00 +26°C° 0,4 mm 6 m/S 751 mmHg 79%
    18:00 +23°C° 0,4 mm 6 m/S 752 mmHg 86%
    19:00 +22°C° 0,4 mm 6 m/S 752 mmHg 94%
    20:00 +22°C° 0,5 mm 6 m/S 753 mmHg 93%
    21:00 +22°C° 0,5 mm 7 m/S 753 mmHg 92%
    22:00 +22°C° 0,5 mm 7 m/S 753 mmHg 92%
    23:00 +22°C° 0,4 mm 7 m/S 753 mmHg 92%
    Mehr zeigen